Martinsburg, WV

3:36 AM EDT on August 18, 2017 (GMT -0400)
Eastern W Va Regional-Shepherd

Weather History for KMRB - April, 2013

Change the Weather History Date:

Tuesday, April 2, 2013

  Actual Average Record
Temperature  
Mean Temperature 38 °F 48 °F  
Max Temperature 46 °F 59 °F 86 °F (1967)
Min Temperature 30 °F 37 °F 20 °F (1964)
Degree Days  
Heating Degree Days 27 17  
Month to date heating degree days 44 34  
Since 1 July heating degree days 4457 4704  
Cooling Degree Days 0 0  
Month to date cooling degree days 0 0  
Year to date cooling degree days 0 1  
Moisture  
Dew Point 12 °F    
Average Humidity 32    
Maximum Humidity 43    
Minimum Humidity 21    
Precipitation  
Precipitation 0.00 in 0.11 in 1.62 in (1983)
Month to date precipitation 0.04 0.23  
Year to date precipitation 7.08 8.53  
Sea Level Pressure  
Sea Level Pressure 30.10 in    
Wind  
Wind Speed 9 mph (WNW)    
Max Wind Speed 24 mph    
Max Gust Speed 39 mph    
Visibility 10 miles    
Events      
T = Trace of Precipitation, MM = Missing Value Source: NWS Daily Summary

Daily Weather History Graph

Daily Weather History Graph

Search for Another Location

Airport or City:

Trip Planner

Search our weather history database for the weather conditions in past years. The results will help you decide how hot, cold, wet, or windy it might be!

Date:

Astronomy

Apr. 02, 2013 Rise Set
Actual Time 6:54 AM EDT 7:37 PM EDT
Civil Twilight 6:27 AM EDT 8:04 PM EDT
Nautical Twilight 5:55 AM EDT 8:36 PM EDT
Astronomical Twilight 5:22 AM EDT 9:09 PM EDT
Moon 1:38 AM EDT (4/2) 11:44 AM EDT (4/2)
Length of Visible Light 13h 36m
Length of Day
12h 42m
Waning Gibbous, 56% of the Moon is Illuminated
Apr 2
Waning Gibbous
Apr 3
Last Quarter
Apr 10
New
Apr 18
First Quarter
Apr 25
Full

Hourly Weather History & Observations

Time (EDT) Temp. Windchill Dew Point Humidity Pressure Visibility Wind Dir Wind Speed Gust Speed Precip Events Conditions
12:53 AM 37.0 °F 31.0 °F 12.9 °F 37% 30.02 in 10.0 mi West 8.1 mph - N/A   Partly Cloudy
1:53 AM 37.0 °F 34.5 °F 12.9 °F 37% 30.02 in 10.0 mi WSW 3.5 mph - N/A   Partly Cloudy
2:53 AM 35.1 °F 32.2 °F 14.0 °F 42% 30.01 in 10.0 mi SW 3.5 mph - N/A   Mostly Cloudy
3:53 AM 34.0 °F - 14.0 °F 44% 30.01 in 10.0 mi Calm Calm - N/A   Overcast
4:53 AM 36.0 °F 29.6 °F 14.0 °F 41% 30.03 in 10.0 mi WNW 8.1 mph - N/A   Partly Cloudy
5:53 AM 33.1 °F 27.7 °F 14.0 °F 46% 30.05 in 10.0 mi West 5.8 mph - N/A   Clear
6:53 AM 33.1 °F 28.7 °F 12.9 °F 43% 30.07 in 10.0 mi West 4.6 mph - N/A   Clear
7:53 AM 35.1 °F 30.1 °F 14.0 °F 42% 30.11 in 10.0 mi WNW 5.8 mph - N/A   Clear
8:53 AM 37.0 °F 30.4 °F 15.1 °F 41% 30.13 in 10.0 mi WNW 9.2 mph - N/A   Mostly Cloudy
9:53 AM 37.9 °F 29.2 °F 14.0 °F 38% 30.13 in 10.0 mi WNW 15.0 mph 21.9 mph N/A   Partly Cloudy
10:53 AM 39.0 °F 32.3 °F 14.0 °F 36% 30.14 in 10.0 mi NW 10.4 mph 20.7 mph N/A   Mostly Cloudy
11:53 AM 41.0 °F 33.9 °F 15.1 °F 35% 30.14 in 10.0 mi West 12.7 mph 20.7 mph N/A   Mostly Cloudy
12:53 PM 43.0 °F 36.8 °F 12.9 °F 30% 30.12 in 10.0 mi WNW 11.5 mph 23.0 mph N/A   Clear
1:53 PM 44.1 °F 36.2 °F 12.0 °F 27% 30.11 in 10.0 mi West 18.4 mph 27.6 mph N/A   Clear
2:53 PM 46.0 °F 38.3 °F 12.0 °F 25% 30.10 in 10.0 mi West 20.7 mph 26.5 mph N/A   Clear
3:53 PM 45.0 °F 38.2 °F 10.0 °F 24% 30.09 in 10.0 mi West 15.0 mph 27.6 mph N/A   Partly Cloudy
4:53 PM 46.0 °F 39.0 °F 9.0 °F 22% 30.08 in 10.0 mi WNW 17.3 mph 21.9 mph N/A   Partly Cloudy
5:53 PM 45.0 °F 37.1 °F 8.1 °F 22% 30.09 in 10.0 mi West 19.6 mph 25.3 mph N/A   Clear
6:53 PM 44.1 °F 39.5 °F 8.1 °F 23% 30.11 in 10.0 mi WNW 8.1 mph - N/A   Partly Cloudy
7:53 PM 42.1 °F 36.6 °F 8.1 °F 25% 30.13 in 10.0 mi NW 9.2 mph - N/A   Clear
8:53 PM 39.9 °F 35.8 °F 9.0 °F 28% 30.15 in 10.0 mi NW 5.8 mph - N/A   Clear
9:53 PM 37.9 °F 32.7 °F 10.0 °F 32% 30.18 in 10.0 mi NW 6.9 mph - N/A   Clear
10:53 PM 37.9 °F 35.5 °F 10.9 °F 33% 30.18 in 10.0 mi NNW 3.5 mph - N/A   Clear
11:53 PM 37.0 °F 34.5 °F 12.0 °F 36% 30.19 in 10.0 mi NW 3.5 mph - N/A   Clear